Date String (YYYY-MM-DD hh:mm:ss) UTC,Instrument flags,absolute air pressure of the measurement (hPa),sample flow rate (lpm),inlet stack bypass flow (lpm),air temperature of the measurement (°C),ambient temperature measured by the external sensor (°C),aerosol sample conditioner tube jacket temperature (°C),OPC LED temperature (°C),internal box temperature (°C),relative humidity of the measurement (%),span deviation,mass concentration of particles derived from Lorenz-Mie calculation of OPC scattering (μg/m³),mass concentration of particles derived from Lorenz-Mie calculation of OPC scattering (μg/m³),mass concentration of particles derived from Lorenz-Mie calculation of OPC scattering (μg/m³)
DateTimeUTC,F1_M11,P_M11,Q1_M11,Q2_M11,T1_M11,T2_M11,T3_M11,T4_M11,T5_M11,U1_M11,ZSPAN_M11,X2_M11,X0_M11,X1_M11
2023-10-04 05:00:00,SystemResetWarning,0829.3,5.00,000.00,029.1,027.8,000.0,037.5,030.7,11.8,0000.0,0001.72,0002.70,0001.40
2023-10-04 05:01:00,SystemResetWarning,0829.3,4.99,000.00,029.1,027.8,000.0,037.5,030.7,11.8,0000.0,0001.72,0002.67,0001.40
2023-10-04 05:02:00,SystemResetWarning,0829.3,5.00,000.00,029.1,027.8,000.0,037.5,030.7,11.9,0000.0,0001.69,0002.51,0001.39
2023-10-04 05:03:00,SystemResetWarning,0829.4,5.00,000.00,029.1,027.8,000.0,037.5,030.7,11.9,0000.0,0001.65,0002.41,0001.40
2023-10-04 05:04:00,SystemResetWarning,0829.4,5.00,000.00,029.1,027.8,000.0,037.5,030.7,11.9,0000.0,0001.66,0002.41,0001.40
2023-10-04 05:05:00,SystemResetWarning,0829.4,4.99,000.00,029.1,027.8,000.0,037.5,030.8,11.9,0000.0,0001.67,0002.44,0001.41
2023-10-04 05:06:00,SystemResetWarning,0829.4,5.00,000.00,029.1,027.8,000.0,037.5,030.8,11.9,0000.0,0001.67,0002.41,0001.41
2023-10-04 05:07:00,SystemResetWarning,0829.4,4.99,000.00,029.2,027.9,000.0,037.6,030.8,11.9,0000.0,0001.65,0002.27,0001.41
2023-10-04 05:08:00,SystemResetWarning,0829.4,5.01,000.00,029.2,027.9,000.0,037.6,030.8,11.9,0000.0,0001.63,0002.20,0001.40
2023-10-04 05:09:00,SystemResetWarning,0829.5,5.01,000.00,029.2,027.9,000.0,037.6,030.8,11.9,0000.0,0001.67,0002.36,0001.41
2023-10-04 05:10:00,SystemResetWarning,0829.6,5.01,000.00,029.2,027.9,000.0,037.6,030.8,11.9,0000.0,0001.69,0002.43,0001.43
2023-10-04 05:11:00,SystemResetWarning,0829.6,5.00,000.00,029.2,027.9,000.0,037.6,030.8,11.9,0000.0,0001.73,0002.51,0001.44
2023-10-04 05:12:00,SystemResetWarning,0829.6,4.99,000.00,029.2,027.9,000.0,037.6,030.8,11.9,0000.0,0001.74,0002.54,0001.44
2023-10-04 05:13:00,SystemResetWarning,0829.6,4.99,000.00,029.2,027.9,000.0,037.6,030.8,11.9,0000.0,0001.75,0002.55,0001.45
2023-10-04 05:14:00,SystemResetWarning,0829.7,5.00,000.00,029.2,027.9,000.0,037.6,030.8,12.0,0000.0,0001.75,0002.54,0001.45
2023-10-04 05:15:00,SystemResetWarning,0829.7,5.01,000.00,029.2,027.9,000.0,037.6,030.8,11.9,0000.0,0001.75,0002.55,0001.44
2023-10-04 05:16:00,SystemResetWarning,0829.7,5.01,000.00,029.2,027.9,000.0,037.6,030.9,11.9,0000.0,0001.75,0002.70,0001.45
2023-10-04 05:17:00,SystemResetWarning,0829.7,5.00,000.00,029.2,027.9,000.0,037.6,030.9,11.9,0000.0,0001.77,0002.78,0001.45
2023-10-04 05:18:00,SystemResetWarning,0829.6,5.00,000.00,029.3,028.0,000.0,037.7,030.9,11.8,0000.0,0001.76,0002.76,0001.46
2023-10-04 05:19:00,SystemResetWarning,0829.7,4.99,000.00,029.3,028.0,000.0,037.7,030.9,11.9,0000.0,0001.79,0002.80,0001.46
2023-10-04 05:20:00,SystemResetWarning,0829.7,4.99,000.00,029.3,028.0,000.0,037.7,030.9,11.9,0000.0,0001.80,0002.82,0001.46
2023-10-04 05:21:00,SystemResetWarning,0829.7,5.00,000.00,029.3,028.0,000.0,037.7,030.9,11.8,0000.0,0001.79,0002.76,0001.46
2023-10-04 05:22:00,SystemResetWarning,0829.7,5.00,000.00,029.3,028.0,000.0,037.7,030.9,11.8,0000.0,0001.79,0002.79,0001.47
2023-10-04 05:23:00,SystemResetWarning,0829.7,5.00,000.00,029.3,028.0,000.0,037.7,031.0,11.7,0000.0,0001.78,0002.76,0001.47
2023-10-04 05:24:00,SystemResetWarning,0829.7,5.00,000.00,029.3,028.0,000.0,037.7,031.0,11.8,0000.0,0001.78,0002.78,0001.46
2023-10-04 05:25:00,SystemResetWarning,0829.7,5.00,000.00,029.3,028.0,000.0,037.7,031.0,11.8,0000.0,0001.78,0002.84,0001.46
2023-10-04 05:26:00,SystemResetWarning,0829.7,5.00,000.00,029.3,028.1,000.0,037.7,031.0,11.9,0000.0,0001.79,0002.81,0001.46
2023-10-04 05:27:00,SystemResetWarning,0829.8,5.00,000.00,029.3,028.1,000.0,037.7,031.0,11.7,0000.0,0001.78,0002.61,0001.46
2023-10-04 05:28:00,SystemResetWarning,0829.8,5.01,000.00,029.3,028.1,000.0,037.7,031.0,11.7,0000.0,0001.78,0002.62,0001.46
2023-10-04 05:29:00,SystemResetWarning,0829.8,5.00,000.00,029.4,028.1,000.0,037.7,031.0,11.7,0000.0,0001.79,0002.65,0001.47
2023-10-04 05:30:00,SystemResetWarning,0829.8,5.00,000.00,029.4,028.1,000.0,037.7,031.0,11.8,0000.0,0001.77,0002.60,0001.47
2023-10-04 05:31:00,SystemResetWarning,0829.9,4.99,000.00,029.4,028.1,000.0,037.7,031.0,11.9,0000.0,0001.72,0002.51,0001.47
2023-10-04 05:32:00,SystemResetWarning,0829.9,5.00,000.00,029.4,028.1,000.0,037.7,031.1,11.9,0000.0,0001.70,0002.48,0001.46
2023-10-04 05:33:00,SystemResetWarning,0829.9,5.00,000.00,029.4,028.1,000.0,037.7,031.1,12.0,0000.0,0001.67,0002.84,0001.45
2023-10-04 05:34:00,SystemResetWarning,0829.9,5.00,000.00,029.4,028.1,000.0,037.8,031.1,12.0,0000.0,0001.67,0003.50,0001.45
2023-10-04 05:35:00,SystemResetWarning,0829.9,4.99,000.00,029.4,028.1,000.0,037.8,031.1,12.0,0000.0,0001.65,0003.45,0001.44
2023-10-04 05:36:00,SystemResetWarning,0829.9,5.00,000.00,029.4,028.1,000.0,037.8,031.1,12.0,0000.0,0001.64,0003.41,0001.45
2023-10-04 05:37:00,SystemResetWarning,0830.0,5.01,000.00,029.4,028.2,000.0,037.8,031.1,12.1,0000.0,0001.64,0003.41,0001.46
2023-10-04 05:38:00,SystemResetWarning,0830.0,5.01,000.00,029.5,028.2,000.0,037.8,031.1,12.1,0000.0,0001.64,0003.42,0001.46
2023-10-04 05:39:00,SystemResetWarning,0830.0,5.00,000.00,029.5,028.2,000.0,037.8,031.1,12.1,0000.0,0001.63,0003.36,0001.45
2023-10-04 05:40:00,SystemResetWarning,0830.0,5.00,000.00,029.5,028.2,000.0,037.8,031.1,12.1,0000.0,0001.64,0003.35,0001.45
2023-10-04 05:41:00,SystemResetWarning,0830.0,5.00,000.00,029.5,028.2,000.0,037.8,031.1,12.1,0000.0,0001.66,0003.39,0001.45
2023-10-04 05:42:00,SystemResetWarning,0830.0,5.00,000.00,029.5,028.2,000.0,037.8,031.2,12.1,0000.0,0001.67,0003.34,0001.45
2023-10-04 05:43:00,SystemResetWarning,0830.0,4.99,000.00,029.5,028.2,000.0,037.9,031.2,12.2,0000.0,0001.66,0003.30,0001.45
2023-10-04 05:44:00,SystemResetWarning,0830.1,5.00,000.00,029.5,028.2,000.0,037.9,031.1,12.2,0000.0,0001.67,0003.54,0001.44
2023-10-04 05:45:00,SystemResetWarning,0830.1,5.00,000.00,029.5,028.2,000.0,037.9,031.2,12.2,0000.0,0001.69,0003.27,0001.44
2023-10-04 05:46:00,SystemResetWarning,0830.1,5.00,000.00,029.5,028.3,000.0,037.9,031.2,12.2,0000.0,0001.70,0003.57,0001.45
2023-10-04 05:47:00,SystemResetWarning,0830.0,4.99,000.00,029.5,028.3,000.0,037.9,031.2,12.2,0000.0,0001.69,0003.55,0001.45
2023-10-04 05:48:00,SystemResetWarning,0830.0,4.99,000.00,029.6,027.5,000.0,037.9,031.2,12.2,0000.0,0001.67,0003.48,0001.44
2023-10-04 05:49:00,SystemResetWarning,0830.0,5.00,000.00,029.5,025.4,000.0,037.9,031.0,12.3,0000.0,0001.66,0003.47,0001.43
2023-10-04 05:50:00,SystemResetWarning,0830.0,5.01,000.00,029.4,024.8,000.0,037.8,030.8,12.4,0000.0,0001.70,0003.59,0001.44
2023-10-04 05:51:00,SystemResetWarning,0830.0,5.01,000.00,029.2,025.0,000.0,037.8,030.5,12.5,0000.0,0001.73,0003.75,0001.44
2023-10-04 05:52:00,SystemResetWarning,0830.0,5.00,000.00,029.1,025.3,000.0,037.8,030.4,12.6,0000.0,0001.73,0003.76,0001.44
2023-10-04 05:53:00,SystemResetWarning,0830.1,5.00,000.00,029.1,025.7,000.0,037.8,030.4,12.7,0000.0,0001.71,0003.72,0001.44
2023-10-04 05:54:00,SystemResetWarning,0830.1,5.01,000.00,029.1,026.1,000.0,037.7,030.5,12.8,0000.0,0001.74,0003.77,0001.44
2023-10-04 05:55:00,SystemResetWarning,0830.0,5.00,000.00,029.0,026.4,000.0,037.7,030.5,12.9,0000.0,0001.76,0003.36,0001.46
2023-10-04 05:56:00,SystemResetWarning,0830.0,4.99,000.00,029.0,026.7,000.0,037.6,030.6,12.9,0000.0,0001.74,0002.80,0001.45
2023-10-04 05:57:00,SystemResetWarning,0830.1,5.00,000.00,029.0,026.9,000.0,037.6,030.6,13.0,0000.0,0001.74,0002.53,0001.45
2023-10-04 05:58:00,SystemResetWarning,0830.1,5.00,000.00,029.0,027.1,000.0,037.6,030.7,13.0,0000.0,0001.76,0002.62,0001.45
2023-10-04 05:59:00,SystemResetWarning,0830.1,4.99,000.00,029.0,027.3,000.0,037.6,030.7,13.1,0000.0,0001.76,0002.62,0001.45
